カタログに戻る

STARLINK-5958

運用中通信VLEO
NORAD 56921·PAYLOAD·🇺🇸 United States

打ち上げ Jun 12, 2023 から Cape Canaveral Space Force Station

Loading…

次のパス (今後24時間)

TLE

最新Source: CelesTrak SupGP

元期: Sep 15, 2026, 02:49 UTC

1 56921C 23083AX  26258.11784722 -.00035820  00000+0 -12972-2 0  2584
2 56921  43.0009  80.5941 0001529 267.3199  37.8899 15.27601900    18

AllMySatでSTARLINK-5958をリアルタイム追跡

Download on the App Store